OK1FET-14 Weather Reports


time (UTC)temp
C
wind
direction
speed
KPH
gust
KPH
rain 1hr
cm
rain 24hr
cm
rain mn
cm
humidity
%
barometer
mb
20260505041445 14 45 3.2 4.8 0.00 0.00 0.00 67 1010.1
20260505041441 14 45 3.2 4.8 0.00 0.00 0.00 67 1010.1
20260505041001 13 45 3.2 4.8 0.00 0.00 0.00 67 1010.2
20260505040820 13 45 4.8 6.4 0.00 0.00 0.00 67 1010.2
20260505040525 13 45 4.8 6.4 0.00 0.00 0.00 67 1010.2
20260505040520 13 45 4.8 6.4 0.00 0.00 0.00 67 1010.2
20260505040045 13 45 6.4 8.0 0.00 0.00 0.00 68 1010.2
20260505040040 13 45 6.4 8.0 0.00 0.00 0.00 68 1010.2
20260505035605 13 45 8.0 8.0 0.00 0.00 0.00 68 1010.1
20260505035600 13 45 8.0 8.0 0.00 0.00 0.00 68 1010.1
20260505035124 13 45 8.0 8.0 0.00 0.00 0.00 68 1010.1
20260505035119 13 45 8.0 8.0 0.00 0.00 0.00 68 1010.1
20260505034643 13 45 8.0 8.0 0.00 0.00 0.00 68 1010.1
20260505034639 13 45 8.0 8.0 0.00 0.00 0.00 68 1010.1
20260505034203 13 42 8.0 9.7 0.00 0.00 0.00 68 1010.1
20260505034159 13 42 8.0 9.7 0.00 0.00 0.00 68 1010.1
20260505033723 13 45 8.0 8.0 0.00 0.00 0.00 68 1010.1
20260505033719 13 45 8.0 8.0 0.00 0.00 0.00 68 1010.1
20260505033242 13 45 6.4 8.0 0.00 0.00 0.00 68 1010.2
20260505033238 13 45 6.4 8.0 0.00 0.00 0.00 68 1010.2
20260505032758 13 45 8.0 8.0 0.00 0.00 0.00 68 1010.1
20260505032318 13 45 6.4 8.0 0.00 0.00 0.00 68 1010.1
20260505031842 13 16 8.0 8.0 0.00 0.00 0.00 68 1010.2
20260505031837 13 16 8.0 8.0 0.00 0.00 0.00 68 1010.2
20260505031402 13 0 9.7 11.3 0.00 0.00 0.00 68 1010.2
20260505031357 13 0 9.7 11.3 0.00 0.00 0.00 68 1010.2
20260505030921 13 0 9.7 11.3 0.00 0.00 0.00 68 1010.2
20260505030917 13 0 9.7 11.3 0.00 0.00 0.00 68 1010.2
20260505030436 13 0 9.7 11.3 0.00 0.00 0.00 69 1010.3
20260505030001 13 0 11.3 11.3 0.00 0.00 0.00 68 1010.3
20260505025956 13 0 11.3 11.3 0.00 0.00 0.00 68 1010.3
20260505025521 13 0 11.3 11.3 0.00 0.00 0.00 68 1010.2
20260505025516 13 0 11.3 11.3 0.00 0.00 0.00 68 1010.2
20260505025040 13 0 9.7 11.3 0.00 0.00 0.00 68 1010.2
20260505025036 13 0 9.7 11.3 0.00 0.00 0.00 68 1010.2
20260505024600 13 0 9.7 9.7 0.00 0.00 0.00 69 1010.3
20260505024559 13 0 9.7 9.7 0.00 0.00 0.00 69 1010.3
20260505024555 13 0 9.7 9.7 0.00 0.00 0.00 69 1010.3
20260505024129 13 0 9.7 11.3 0.00 0.00 0.00 69 1010.4
20260505024115 13 0 9.7 11.3 0.00 0.00 0.00 69 1010.3
20260505023639 13 0 9.7 11.3 0.00 0.00 0.00 69 10.1
20260505023635 13 0 9.7 11.3 0.00 0.00 0.00 69 1010.4
20260505023159 13 0 9.7 11.3 0.00 0.00 0.00 69 1010.4
20260505023155 13 0 9.7 11.3 0.00 0.00 0.00 69 1010.4
20260505022719 13 0 9.7 11.3 0.00 0.00 0.00 69 1010.6
20260505022714 13 0 9.7 11.3 0.00 0.00 0.00 69 1010.6
20260505022234 13 0 12.9 17.7 0.00 0.00 0.00 69 1010.6
20260505021758 13 0 16.1 19.3 0.00 0.00 0.00 69 1010.5
20260505021754 13 0 16.1 19.3 0.00 0.00 0.00 69 1010.5
20260505021318 13 0 19.3 20.9 0.00 0.00 0.00 69 1010.6
20260505021314 13 0 19.3 20.9 0.00 0.00 0.00 69 1010.6
20260505020838 13 344 20.9 24.1 0.00 0.00 0.00 70 1010.6
20260505020833 13 344 20.9 24.1 0.00 0.00 0.00 70 1010.6
20260505020358 13 353 22.5 25.7 0.00 0.00 0.00 70 1010.6
20260505020353 13 353 22.5 25.7 0.00 0.00 0.00 70 1010.6
20260505015913 13 357 22.5 30.6 0.00 0.00 0.00 70 1010.6
20260505015433 13 351 16.1 20.9 0.00 0.00 0.00 70 1010.6
20260505014956 13 351 17.7 20.9 0.00 0.00 0.00 70 1010.6
20260505014952 13 351 17.7 20.9 0.00 0.00 0.00 70 1010.6
20260505014516 13 357 14.5 19.3 0.00 0.00 0.00 71 1010.6
20260505014513 13 357 14.5 19.3 0.00 0.00 0.00 71 1010.6
20260505014217 13 357 14.5 17.7 0.00 0.00 0.00 70 1010.7
20260505014036 13 357 14.5 17.7 0.00 0.00 0.00 70 1010.7
20260505014032 13 357 14.5 17.7 0.00 0.00 0.00 70 1010.7
20260505013551 13 356 12.9 17.7 0.00 0.00 0.00 68 1010.7
20260505013115 13 359 16.1 20.9 0.00 0.00 0.00 68 1010.7
20260505013111 13 359 16.1 20.9 0.00 0.00 0.00 68 1010.7
20260505012635 14 0 14.5 20.9 0.00 0.00 0.00 67 1010.9
20260505012631 14 0 14.5 20.9 0.00 0.00 0.00 67 1010.9
20260505012231 14 0 12.9 17.7 0.00 0.00 0.00 66 1010.8
20260505012155 14 0 12.9 17.7 0.00 0.00 0.00 66 1010.8
20260505012150 14 0 12.9 17.7 0.00 0.00 0.00 66 1010.8
20260505011714 14 0 11.3 14.5 0.00 0.00 0.00 66 1010.9
20260505011710 14 0 11.3 14.5 0.00 0.00 0.00 66 1010.9
20260505011230 14 0 12.9 14.5 0.00 0.00 0.00 66 1010.8
20260505010754 14 0 12.9 14.5 0.00 0.00 0.00 65 1010.9
20260505010749 14 0 12.9 14.5 0.00 0.00 0.00 65 1010.9
20260505010309 15 0 12.9 14.5 0.00 0.00 0.00 65 1010.9
20260505005833 15 354 11.3 16.1 0.00 0.00 0.00 65 1011.0
20260505005829 15 354 11.3 16.1 0.00 0.00 0.00 65 1011.0
20260505005352 15 0 8.0 11.3 0.00 0.00 0.00
20260505005348 15 0 8.0 11.3 0.00 0.00 0.00 65 1011.1
20260505004908 15 6 9.7 11.3 0.00 0.00 0.00 65 1011.1
20260505004428 15 6 9.7 11.3 0.00 0.00 0.00 65 1011.1
20260505004105 15 15 9.7 12.9 0.00 0.00 0.00 65 1011.1
20260505003952 15 15 9.7 12.9 0.00 0.00 0.00 65 1011.1
20260505003947 15 15 9.7 12.9 0.00 0.00 0.00 65 1011.1
20260505003507 14 13 11.3 11.3 0.00 0.00 0.00 66 1011.2
20260505003027 14 36 9.7 11.3 0.00 0.00 0.00 65 1011.2
20260505002550 15 45 11.3 11.3 0.00 0.00 0.00 65 1011.3
20260505002546 15 45 11.3 11.3 0.00 0.00 0.00 65 1011.3
20260505002238 14 45 11.3 11.3 0.00 0.00 0.00 65 1011.4
20260505002110 14 45 11.3 11.3 0.00 0.00 0.00 65 1011.4
20260505002106 14 45 11.3 11.3 0.00 0.00 0.00 65 1011.4
20260505001626 14 45 9.7 11.3 0.00 0.00 0.00 65 1011.5
20260505001145 14 45 9.7 11.3 0.00 0.00 0.00 65 1011.5
20260505000705 15 45 11.3 11.3 0.00 0.00 0.00 64 1011.6
20260505000226 15 45 11.3 12.9 0.00 0.00 0.00 65 1011.6
20260504235749 14 45 11.3 14.5 0.00 0.00 0.00 65 1011.6
20260504235744 14 45 11.3 14.5 0.00 0.00 0.00 65 1011.6
20260504235309 14 45 11.3 12.9 0.00 0.00 0.00 65 1011.6
20260504235305 14 45 11.3 12.9 0.00 0.00 0.00 65 1011.6
20260504234828 14 45 9.7 11.3 0.00 0.00 0.00 66 1011.6
20260504234824 14 45 9.7 11.3 0.00 0.00 0.00 66 1011.6
20260504234348 14 39 9.7 14.5 0.00 0.00 0.00 66 1011.8
20260504234343 14 39 9.7 14.5 0.00 0.00 0.00 66 1011.8
20260504233907 14 45 9.7 12.9 0.00 0.00 0.00 65 1011.9
20260504233903 14 45 9.7 12.9 0.00 0.00 0.00 65 1011.9
20260504233427 14 45 8.0 9.7 0.00 0.00 0.00 64 1012.0
20260504233423 14 45 8.0 9.7 0.00 0.00 0.00 64 1012.0
20260504232946 14 45 8.0 8.0 0.00 0.00 0.00 64 1012.1
20260504232942 14 45 8.0 8.0 0.00 0.00 0.00 64 1012.1
20260504232502 14 45 8.0 8.0 0.00 0.00 0.00 64 1012.2
20260504232116 14 45 8.0 8.0 0.00 0.00 0.00 64 1012.2
20260504232026 14 45 8.0 8.0 0.00 0.00 0.00 64 1012.2
20260504232021 14 45 8.0 8.0 0.00 0.00 0.00 64 1012.2
20260504231545 14 45 8.0 9.7 0.00 0.00 0.00 63 1012.3
20260504231541 14 45 8.0 9.7 0.00 0.00 0.00 63 1012.3
20260504231246 14 60 8.0 9.7 0.00 0.00 0.00 63 1012.3
20260504231105 14 60 8.0 9.7 0.00 0.00 0.00 63 1012.3
20260504231101 14 60 8.0 9.7 0.00 0.00 0.00 63 1012.3
20260504230625 15 51 9.7 11.3 0.00 0.00 0.00 65 1012.4
20260504230620 15 51 9.7 11.3 0.00 0.00 0.00 65 1012.4
20260504230216 15 75 9.7 11.3 0.00 0.00 0.00 65 1012.5
20260504230145 15 75 9.7 11.3 0.00 0.00 0.00 65 1012.5
20260504230140 15 75 9.7 11.3 0.00 0.00 0.00 65 1012.5
20260504225704 15 85 8.0 9.7 0.00 0.00 0.00 64 1012.5
20260504225700 15 85 8.0 9.7 0.00 0.00 0.00 64 1012.5
20260504225224 15 87 9.7 11.3 0.00 0.00 0.00 64 1012.5
20260504225219 15 87 9.7 11.3 0.00 0.00 0.00 64 1012.5
20260504224743 15 96 8.0 11.3 0.00 0.00 0.00 63 1012.6
20260504224739 15 96 8.0 11.3 0.00 0.00 0.00 63 1012.6
20260504224303 15 86 9.7 12.9 0.00 0.00 0.00 63 1012.5
20260504224259 15 86 9.7 12.9 0.00 0.00 0.00 63 1012.5
20260504223823 15 72 9.7 11.3 0.00 0.00 0.00 64 1012.6
20260504223818 15 72 9.7 11.3 0.00 0.00 0.00 64 1012.6
20260504223342 15 63 11.3 14.5 0.00 0.00 0.00 63 0.1
20260504223338 15 63 11.3 14.5 0.00 0.00 0.00 63 1012.4
20260504222858 15 63 9.7 12.9 0.00 0.00 0.00 64 1012.5
20260504222421 15 45 12.9 12.9 0.00 0.00 0.00 62 1012.3
20260504222417 15 45 12.9 12.9 0.00 0.00 0.00 62 1012.3
20260504222129 15 45 12.9 12.9 0.00 0.00 0.00 62 1012.2
20260504221941 15 45 12.9 12.9 0.00 0.00 0.00 62 1012.2
20260504221937 15 45 12.9 12.9 0.00 0.00 0.00 62 1012.2
20260504221501 15 45 11.3 12.9 0.00 0.00 0.00 62 1012.3
20260504221456 15 45 11.3 12.9 0.00 0.00 0.00 62 1012.3
20260504221020 15 45 11.3 11.3 0.00 0.00 0.00 61 1012.4
20260504221016 15 45 11.3 11.3 0.00 0.00 0.00 61 1012.4
20260504220540 15 45 11.3 12.9 0.00 0.00 0.00 60 1012.4
20260504220536 15 45 11.3 12.9 0.00 0.00 0.00 60 1012.4
20260504220055 15 45 11.3 12.9 0.00 0.00 0.00 60 1012.4
20260504215619 15 45 12.9 12.9 0.00 0.00 0.00 60 1012.4
20260504215615 15 45 12.9 12.9 0.00 0.00 0.00 60 1012.4
20260504215138 15 45 12.9 12.9 0.00 0.00 0.00 59 1012.4
20260504215134 15 45 12.9 12.9 0.00 0.00 0.00 59 1012.4
20260504214658 15 45 12.9 16.1 0.00 0.00 0.00 59 1012.5
20260504214654 15 45 12.9 16.1 0.00 0.00 0.00 59 1012.5
20260504214217 15 45 12.9 14.5 0.00 0.00 0.00 59 1012.4
20260504214214 15 45 12.9 14.5 0.00 0.00 0.00 59 1012.4
20260504213733 15 45 12.9 14.5 0.00 0.00 0.00 59 1012.4
20260504213257 15 45 16.1 27.4 0.00 0.00 0.00 58 1012.4
20260504213253 15 45 16.1 27.4 0.00 0.00 0.00 58 1012.4
20260504212817 15 45 12.9 16.1 0.00 0.00 0.00 58 1012.5
20260504212812 15 45 12.9 16.1 0.00 0.00 0.00 58 1012.5
20260504212332 16 45 12.9 16.1 0.00 0.00 0.00 58 1012.5
20260504211851 16 45 14.5 14.5 0.00 0.00 0.00 57 1012.5
20260504211411 16 45 12.9 14.5 0.00 0.00 0.00 56 1012.5
20260504210931 16 45 16.1 24.1 0.00 0.00 0.00 56 1012.7
20260504210455 16 45 14.5 17.7 0.00 0.00 0.00 56 1012.6
20260504210450 16 45 14.5 17.7 0.00 0.00 0.00 56 1012.6
20260504210010 16 45 12.9 16.1 0.00 0.00 0.00 55 1012.7
20260504205529 16 45 12.9 16.1 0.00 0.00 0.00 54 1012.8
20260504205049 16 45 12.9 14.5 0.00 0.00 0.00 53 1012.8
20260504204608 16 42 9.7 14.5 0.00 0.00 0.00 53 1012.8
20260504204128 16 16 8.0 12.9 0.00 0.00 0.00 52 1012.8
20260504203647 16 3 8.0 9.7 0.00 0.00 0.00 52 1012.9
20260504203207 16 19 9.7 11.3 0.00 0.00 0.00 52 1013.0
20260504202726 17 33 9.7 11.3 0.00 0.00 0.00 51 1012.9
20260504202246 17 60 11.3 12.9 0.00 0.00 0.00 50 1012.9
20260504201809 17 68 11.3 12.9 0.00 0.00 0.00 50 1012.8
20260504201805 17 68 11.3 12.9 0.00 0.00 0.00 50 1012.8
20260504201324 17 58 11.3 12.9 0.00 0.00 0.00 50 1012.8
20260504200844 17 54 11.3 11.3 0.00 0.00 0.00 50 1012.9
20260504200403 17 45 9.7 11.3 0.00 0.00 0.00 50 1012.9
20260504195923 17 45 11.3 12.9 0.00 0.00 0.00 49 1012.9
20260504195442 17 45 11.3 12.9 0.00 0.00 0.00 50 1013.0
20260504195002 17 45 11.3 11.3 0.00 0.00 0.00 50 1012.9
20260504194526 17 45 9.7 11.3 0.00 0.00 0.00 50 1012.9
20260504194521 17 45 9.7 11.3 0.00 0.00 0.00 50 1012.9
20260504194040 17 45 11.3 12.9 0.00 0.00 0.00 50 1012.9
20260504193600 17 45 11.3 11.3 0.00 0.00 0.00 49 1012.8
20260504193119 17 45 9.7 11.3 0.00 0.00 0.00 49 1012.8
20260504192639 17 45 9.7 11.3 0.00 0.00 0.00 49 1012.8
20260504192203 17 45 9.7 11.3 0.00 0.00 0.00 49 1012.8
20260504192158 17 45 9.7 11.3 0.00 0.00 0.00 49 1012.8
20260504191818 17 45 9.7 11.3 0.00 0.00 0.00 49 1012.8
20260504191718 17 45 9.7 11.3 0.00 0.00 0.00 49 1012.8
20260504191316 17 45 11.3 11.3 0.00 0.00 0.00 49 1012.7
20260504191241 17 45 11.3 11.3 0.00 0.00 0.00 49 1012.7
20260504191237 17 45 11.3 11.3 0.00 0.00 0.00 49 1012.7
20260504190801 17 45 11.3 11.3 0.00 0.00 0.00 49 1012.6
20260504190756 17 45 11.3 11.3 0.00 0.00 0.00 49 1012.6
20260504190316 17 48 9.7 11.3 0.00 0.00 0.00 49 1012.6
20260504185835 17 45 9.7 11.3 0.00 0.00 0.00 49 1012.5
20260504185354 17 45 9.7 11.3 0.00 0.00 0.00 49 1012.6
20260504184919 17 45 9.7 11.3 0.00 0.00 0.00 49 1012.5
20260504184914 17 45 9.7 11.3 0.00 0.00 0.00 49 1012.5
20260504184433 17 45 9.7 11.3 0.00 0.00 0.00 49 1012.4
20260504183953 18 45 9.7 11.3 0.00 0.00 0.00 49 1012.4
20260504183617 18 51 11.3 11.3 0.00 0.00 0.00 49 1012.3
20260504183512 18 51 11.3 11.3 0.00 0.00 0.00 49 1012.3
20260504183031 18 45 11.3 11.3 0.00 0.00 0.00 49 1012.4
20260504182556 18 54 11.3 12.9 0.00 0.00 0.00 49 1012.4
20260504182551 18 54 11.3 12.9 0.00 0.00 0.00 49 1012.4
20260504182110 18 57 11.3 12.9 0.00 0.00 0.00 49 1012.4
20260504181630 18 48 11.3 14.5 0.00 0.00 0.00 49 1012.3
20260504181149 18 45 14.5 20.9 0.00 0.00 0.00 49 1012.4
20260504180708 18 48 14.5 19.3 0.00 0.00 0.00 49 1012.4
20260504180317 18 48 11.3 12.9 0.00 0.00 0.00 49 1012.3
20260504180227 18 48 11.3 12.9 0.00 0.00 0.00 49 1012.3
20260504175747 18 45 11.3 12.9 0.00 0.00 0.00 48 1012.2
20260504175306 19 45 11.3 12.9 0.00 0.00 0.00 48 1012.3
20260504174825 19 45 11.3 11.3 0.00 0.00 0.00 48 1012.2
20260504174345 19 45 11.3 11.3 0.00 0.00 0.00 47 1012.3
20260504173904 19 45 9.7 11.3 0.00 0.00 0.00 46 1012.3
20260504173423 20 45 9.7 11.3 0.00 0.00 0.00 45 1012.4
20260504172942 20 45 11.3 12.9 0.00 0.00 0.00 46 1012.4
20260504172543 20 48 11.3 12.9 0.00 0.00 0.00 46 1012.4
20260504172502 20 48 11.3 12.9 0.00 0.00 0.00 46 1012.4
20260504172021 20 48 11.3 12.9 0.00 0.00 0.00 45 1012.5
20260504171540 20 48 11.3 12.9 0.00 0.00 0.00 46 1012.4
20260504171059 20 46 11.3 12.9 0.00 0.00 0.00 45 1012.5
20260504170618 20 46 11.3 12.9 0.00 0.00 0.00 45 1012.5
20260504170138 20 48 12.9 16.1 0.00 0.00 0.00 45 1012.5
20260504160139 21 57 12.9 14.5 0.00 0.00 0.00 43 1012.7
20260504150915 22 81 9.7 12.9 0.00 0.00 0.00 39 1012.9
20260504150434 23 75 6.4 8.0 0.00 0.00 0.00 38 1012.8
20260504141259 26 54 8.0 9.7 0.00 0.00 0.00 34 1013.2
20260504140817 27 107 4.8 12.9 0.00 0.00 0.00 32 1013.2
20260504140336 26 84 3.2 6.4 0.00 0.00 0.00 34 1013.2
20260504130752 24 260 8.0 12.9 0.00 0.00 0.00 34 1013.7
20260504130718 24 260 8.0 12.9 0.00 0.00 0.00 34 1013.7
20260504130237 25 274 6.4 11.3 0.00 0.00 0.00 35 1013.7
20260504120137 25 224 6.4 9.7 0.00 0.00 0.00 35 1014.1
20260504110516 23 196 3.2 8.0 0.00 0.00 0.00 36 1014.8
20260504100417 22 64 3.2 4.8 0.00 0.00 0.00 40 1015.3
20260504081817 20 315 8.0 11.3 0.00 0.00 0.00 44 1015.3
20260504081632 20 315 8.0 11.3 0.00 0.00 0.00 44 1015.3
20260504081151 20 309 9.7 11.3 0.00 0.00 0.00 45 1015.4
20260504080710 20 315 8.0 9.7 0.00 0.00 0.00 45 1015.4
20260504080229 20 309 9.7 11.3 0.00 0.00 0.00 46 1015.3
20260504070141 18 229 4.8 9.7 0.00 0.00 0.00 52 1015.1
20260504070136 18 229 4.8 9.7 0.00 0.00 0.00 52 1015.1
20260504050447 12 241 11.3 16.1 0.00 0.00 0.00 59 1014.8
20260504050442 12 241 11.3 16.1 0.00 0.00 0.00 59 1014.8
20260504050002 13 255 8.0 11.3 0.00 0.00 0.00 55 1014.8
20260504045526 13 356 1.6 3.2 0.00 0.00 0.00 56 1014.6
20260504045522 13 356 1.6 3.2 0.00 0.00 0.00 56 1014.6
20260504045045 13 36 1.6 3.2 0.00 0.00 0.00 56 1014.5
20260504045041 13 36 1.6 3.2 0.00 0.00 0.00 56 1014.5
20260504044605 13 215 1.6 3.2 0.00 0.00 0.00 56 1014.5
20260504044601 13 215 1.6 3.2 0.00 0.00 0.00 56 1014.5
20260504044125 13 180 1.6 1.6 0.00 0.00 0.00 56 1014.4
20260504044121 13 180 1.6 1.6 0.00 0.00 0.00 56 1014.4
20260504043645 13 347 1.6 3.2 0.00 0.00 0.00 56 1014.5
20260504043640 13 347 1.6 3.2 0.00 0.00 0.00 56 1014.5
20260504043200 12 0 3.2 4.8 0.00 0.00 0.00 57 1014.4
20260504042724 12 353 3.2 4.8 0.00 0.00 0.00 58 1014.3
20260504042720 12 353 3.2 4.8 0.00 0.00 0.00 58 1014.3
20260504042240 12 356 3.2 6.4 0.00 0.00 0.00 58 1014.3
20260504041759 12 347 4.8 8.0 0.00 0.00 0.00 58 1014.3